Voltar ao catálogo

OPS 5960

AtivoNavegaçãoMEO
NORAD 4630·PAYLOAD·🇺🇸 United States

Lançado Nov 6, 1970 de Cape Canaveral Space Force Station

Loading…

Próximas Passagens (próximas 24 horas)

TLE

AtualizadoSource: Space-Track

Época: Sep 14, 2026, 00:00 UTC

1 04630U 70093A   26257.00062559 -.00000162  00000-0  00000-0 0  9991
2 04630  15.2567  34.5448 1359566 281.4234  47.9784  1.20217156244901

Acompanhe OPS 5960 em tempo real com AllMySat

Download on the App Store